Погода в Ольшанах

Украина / Харьковская область     50°03′13″N   35°53′01″E
темп.,
°C
ветер,
м/с
пор.,
м/с
влажн.,
%
обл.,
%
осадки,
мм/ч
давл.,
гПа
погр.,
м
19 мая, ср
ср1900:00+13ююв399428 0.1 1003242
03:00+13ююв499628 0.6 1004446
06:00+12ююв4997100 0.1 1005400
09:00+15юв5781100 0.1 1005698
12:00+16ююв6770100 0.3 10051029
15:00+16юв5671100 0.6 10051008
18:00+16юв5678100 0.6 1004673
21:00+13юв3691100 1.4 1004146
20 мая, чт
чт2000:00+12ю4996100 0.9 1004284
03:00+10ю3797100 1.8 1004202
06:00+10ююз489885 0.1 1004291
09:00+12зюз5893100 0.2 1006597
12:00+13зюз6888100 0.1 1008852
15:00+14зюз6879100 0.4 1009915
18:00+14з5978100 0.2 1010829
21:00+12зюз359035 0.2 1012137
21 мая, пт
пт2100:00+10зсз349635 0.0 1013102
03:00+9сз239564 0.0 101459
06:00+10св2490100 0.0 1015126
09:00+14св5667100 0.0 1015535
12:00+17всв5558100 0.0 1015907
15:00+17св4666100 0.0 1014515
18:00+17ссв5871100 0.0 1014602
21:00+14ссв51172100 0.0 1015335
22 мая, сб
сб2200:00+14ссв61371100 0.0 1014411
03:00+13св51379100 0.0 1014378
06:00+13ссв61386100 0.2 1014470
09:00+16св7137899 0.2 1014602
12:00+20св7870100 0.0 10141119
15:00+19св6876100 0.1 1014719
18:00+19св5978100 0.0 1013733
21:00+16св5118896 0.0 1013361
23 мая, вс
вс2300:00+14св3994100 0.0 1012260
03:00+14св389890 0.0 1011181
06:00+14св359794 0.3 1010139
09:00+19с2281100 0.3 1009320
12:00+21с457399 0.0 1008508
15:00+23ссз4470100 0.0 1007704
18:00+20ссз3684100 0.0 1007263
21:00+18сз379369 0.0 1008183